Time,TemperatureF,DewpointF,PressureIn,WindDirection,WindDirectionDegrees,WindSpeedMPH,WindSpeedGustMPH,Humidity,HourlyPrecipIn,Conditions,Clouds,dailyrainin,SoftwareType,DateUTC
2013-07-16 00:08:00,77.9,71.0,30.22,SSE,166,0.0,2.0,79,0.00,,,0.00,weatherlink.com 1.10,2013-07-16 04:08:00,
2013-07-16 00:23:00,77.9,71.0,30.22,SSE,153,0.0,3.0,79,0.00,,,0.00,weatherlink.com 1.10,2013-07-16 04:23:00,
2013-07-16 00:38:00,77.7,71.0,30.22,SSE,159,2.0,3.0,79,0.00,,,0.00,weatherlink.com 1.10,2013-07-16 04:38:00,
2013-07-16 00:53:00,77.5,71.0,30.23,South,191,0.0,1.0,79,0.00,,,0.00,weatherlink.com 1.10,2013-07-16 04:53:00,
2013-07-16 01:08:00,77.3,70.0,30.23,South,177,0.0,3.0,79,0.00,,,0.00,weatherlink.com 1.10,2013-07-16 05:08:00,
2013-07-16 01:23:00,77.4,70.0,30.23,SSW,208,1.0,1.0,79,0.00,,,0.00,weatherlink.com 1.10,2013-07-16 05:23:00,
2013-07-16 01:38:00,77.4,70.0,30.23,SSW,204,0.0,2.0,79,0.00,,,0.00,weatherlink.com 1.10,2013-07-16 05:38:00,
2013-07-16 01:53:00,77.3,70.0,30.23,WSW,239,0.0,1.0,79,0.00,,,0.00,weatherlink.com 1.10,2013-07-16 05:53:00,
2013-07-16 02:08:00,77.1,70.0,30.23,SSW,193,0.0,1.0,79,0.00,,,0.00,weatherlink.com 1.10,2013-07-16 06:08:00,
2013-07-16 02:23:00,76.7,69.0,30.23,SSW,193,0.0,1.0,78,0.00,,,0.00,weatherlink.com 1.10,2013-07-16 06:23:00,
2013-07-16 02:38:00,76.6,69.0,30.23,East,94,0.0,1.0,78,0.00,,,0.00,weatherlink.com 1.10,2013-07-16 06:38:00,
2013-07-16 02:53:00,76.3,69.0,30.23,East,94,0.0,1.0,77,0.00,,,0.00,weatherlink.com 1.10,2013-07-16 06:53:00,
2013-07-16 03:08:00,76.3,69.0,30.22,WNW,294,0.0,1.0,77,0.00,,,0.00,weatherlink.com 1.10,2013-07-16 07:08:00,
2013-07-16 03:23:00,76.1,68.0,30.23,WNW,294,0.0,0.0,77,0.00,,,0.00,weatherlink.com 1.10,2013-07-16 07:23:00,
2013-07-16 03:38:00,75.8,68.0,30.23,WNW,294,0.0,0.0,76,0.00,,,0.00,weatherlink.com 1.10,2013-07-16 07:38:00,
2013-07-16 03:53:00,75.5,67.0,30.23,WNW,294,0.0,0.0,76,0.00,,,0.00,weatherlink.com 1.10,2013-07-16 07:53:00,
2013-07-16 04:08:00,75.4,67.0,30.23,WNW,294,0.0,0.0,76,0.00,,,0.00,weatherlink.com 1.10,2013-07-16 08:08:00,
2013-07-16 04:23:00,75.2,67.0,30.23,WNW,294,0.0,0.0,76,0.00,,,0.00,weatherlink.com 1.10,2013-07-16 08:23:00,
2013-07-16 04:38:00,75.0,67.0,30.23,WNW,294,0.0,0.0,76,0.00,,,0.00,weatherlink.com 1.10,2013-07-16 08:38:00,
2013-07-16 04:53:00,75.0,67.0,30.24,SSW,210,0.0,1.0,76,0.00,,,0.00,weatherlink.com 1.10,2013-07-16 08:53:00,
2013-07-16 05:08:00,74.8,67.0,30.24,SSW,210,0.0,0.0,76,0.00,,,0.00,weatherlink.com 1.10,2013-07-16 09:08:00,
2013-07-16 05:23:00,74.5,66.0,30.24,SSW,210,0.0,0.0,75,0.00,,,0.00,weatherlink.com 1.10,2013-07-16 09:23:00,
2013-07-16 05:38:00,74.4,66.0,30.25,SSW,210,0.0,0.0,75,0.00,,,0.00,weatherlink.com 1.10,2013-07-16 09:38:00,
2013-07-16 05:53:00,74.4,66.0,30.25,SSW,210,0.0,0.0,75,0.00,,,0.00,weatherlink.com 1.10,2013-07-16 09:53:00,
2013-07-16 06:08:00,74.2,66.0,30.25,SSW,210,0.0,0.0,75,0.00,,,0.00,weatherlink.com 1.10,2013-07-16 10:08:00,
2013-07-16 06:23:00,74.1,66.0,30.25,SSW,210,0.0,0.0,75,0.00,,,0.00,weatherlink.com 1.10,2013-07-16 10:23:00,
2013-07-16 06:38:00,74.1,66.0,30.26,SSW,210,0.0,0.0,75,0.00,,,0.00,weatherlink.com 1.10,2013-07-16 10:38:00,
2013-07-16 06:54:00,74.2,66.0,30.26,SSW,210,0.0,0.0,75,0.00,,,0.00,weatherlink.com 1.10,2013-07-16 10:54:00,
2013-07-16 07:09:00,74.5,66.0,30.26,SSW,210,0.0,0.0,75,0.00,,,0.00,weatherlink.com 1.10,2013-07-16 11:09:00,
2013-07-16 07:24:00,75.0,67.0,30.26,SSW,210,0.0,0.0,75,0.00,,,0.00,weatherlink.com 1.10,2013-07-16 11:24:00,
2013-07-16 07:39:00,75.6,68.0,30.26,SW,224,0.0,0.0,76,0.00,,,0.00,weatherlink.com 1.10,2013-07-16 11:39:00,
2013-07-16 07:53:00,76.7,69.0,30.26,West,266,0.0,1.0,78,0.00,,,0.00,weatherlink.com 1.10,2013-07-16 11:53:00,
2013-07-16 08:09:00,78.1,72.0,30.27,SE,141,0.0,2.0,81,0.00,,,0.00,weatherlink.com 1.10,2013-07-16 12:09:00,
2013-07-16 08:24:00,79.3,73.0,30.27,WSW,247,3.0,4.0,82,0.00,,,0.00,weatherlink.com 1.10,2013-07-16 12:24:00,
2013-07-16 08:39:00,80.4,74.0,30.27,WNW,301,3.0,4.0,81,0.00,,,0.00,weatherlink.com 1.10,2013-07-16 12:39:00,
2013-07-16 08:54:00,81.4,75.0,30.27,SW,236,0.0,5.0,81,0.00,,,0.00,weatherlink.com 1.10,2013-07-16 12:54:00,
2013-07-16 09:09:00,82.5,75.0,30.27,SSW,211,1.0,8.0,79,0.00,,,0.00,weatherlink.com 1.10,2013-07-16 13:09:00,
2013-07-16 09:24:00,83.2,76.0,30.27,WNW,295,1.0,5.0,78,0.00,,,0.00,weatherlink.com 1.10,2013-07-16 13:24:00,
2013-07-16 09:39:00,84.6,77.0,30.27,NW,316,0.0,5.0,77,0.00,,,0.00,weatherlink.com 1.10,2013-07-16 13:39:00,
2013-07-16 09:54:00,84.7,76.0,30.27,WNW,293,5.0,7.0,74,0.00,,,0.00,weatherlink.com 1.10,2013-07-16 13:54:00,
2013-07-16 10:09:00,85.3,76.0,30.27,WSW,257,2.0,4.0,74,0.00,,,0.00,weatherlink.com 1.10,2013-07-16 14:09:00,
2013-07-16 10:24:00,86.0,76.0,30.27,WNW,295,3.0,5.0,72,0.00,,,0.00,weatherlink.com 1.10,2013-07-16 14:24:00,
2013-07-16 10:39:00,86.8,76.0,30.26,NW,313,3.0,6.0,71,0.00,,,0.00,weatherlink.com 1.10,2013-07-16 14:39:00,
2013-07-16 10:54:00,86.2,75.0,30.27,WNW,292,4.0,9.0,70,0.00,,,0.00,weatherlink.com 1.10,2013-07-16 14:54:00,
2013-07-16 11:09:00,87.5,75.0,30.27,SW,217,3.0,9.0,67,0.00,,,0.00,weatherlink.com 1.10,2013-07-16 15:09:00,
2013-07-16 11:24:00,87.4,75.0,30.27,West,273,2.0,6.0,67,0.00,,,0.00,weatherlink.com 1.10,2013-07-16 15:24:00,
2013-07-16 11:39:00,88.1,76.0,30.27,WNW,299,3.0,6.0,67,0.00,,,0.00,weatherlink.com 1.10,2013-07-16 15:39:00,
2013-07-16 11:54:00,87.9,75.0,30.26,WSW,257,1.0,8.0,66,0.00,,,0.00,weatherlink.com 1.10,2013-07-16 15:54:00,
2013-07-16 12:09:00,88.6,75.0,30.26,West,275,2.0,8.0,65,0.00,,,0.00,weatherlink.com 1.10,2013-07-16 16:09:00,
2013-07-16 12:24:00,88.0,75.0,30.26,WNW,301,3.0,7.0,66,0.00,,,0.00,weatherlink.com 1.10,2013-07-16 16:24:00,
2013-07-16 12:39:00,88.5,75.0,30.26,SSE,153,4.0,10.0,64,0.00,,,0.00,weatherlink.com 1.10,2013-07-16 16:39:00,
2013-07-16 12:54:00,88.9,75.0,30.26,WSW,239,4.0,10.0,63,0.00,,,0.00,weatherlink.com 1.10,2013-07-16 16:54:00,
2013-07-16 13:09:00,88.7,74.0,30.25,West,268,4.0,11.0,63,0.00,,,0.00,weatherlink.com 1.10,2013-07-16 17:09:00,
2013-07-16 13:24:00,88.5,75.0,30.25,WNW,295,5.0,11.0,64,0.00,,,0.00,weatherlink.com 1.10,2013-07-16 17:24:00,
2013-07-16 13:39:00,90.0,76.0,30.25,SSW,208,2.0,8.0,64,0.00,,,0.00,weatherlink.com 1.10,2013-07-16 17:39:00,
2013-07-16 13:55:00,89.5,75.0,30.25,WNW,297,1.0,8.0,63,0.00,,,0.00,weatherlink.com 1.10,2013-07-16 17:55:00,
2013-07-16 14:10:00,90.2,75.0,30.24,NW,304,6.0,11.0,61,0.00,,,0.00,weatherlink.com 1.10,2013-07-16 18:10:00,
2013-07-16 14:25:00,89.3,75.0,30.24,WSW,239,6.0,10.0,63,0.00,,,0.00,weatherlink.com 1.10,2013-07-16 18:25:00,
2013-07-16 14:40:00,89.2,74.0,30.24,WNW,287,6.0,11.0,61,0.00,,,0.00,weatherlink.com 1.10,2013-07-16 18:40:00,
2013-07-16 14:55:00,89.4,75.0,30.24,West,259,4.0,9.0,62,0.00,,,0.00,weatherlink.com 1.10,2013-07-16 18:55:00,
2013-07-16 15:10:00,88.6,74.0,30.24,West,259,3.0,9.0,63,0.00,,,0.00,weatherlink.com 1.10,2013-07-16 19:10:00,
2013-07-16 15:25:00,89.9,75.0,30.24,WSW,249,6.0,10.0,62,0.00,,,0.00,weatherlink.com 1.10,2013-07-16 19:25:00,
2013-07-16 15:40:00,90.0,75.0,30.23,West,275,6.0,9.0,61,0.00,,,0.00,weatherlink.com 1.10,2013-07-16 19:40:00,
2013-07-16 15:55:00,90.0,74.0,30.23,West,276,6.0,9.0,60,0.00,,,0.00,weatherlink.com 1.10,2013-07-16 19:55:00,
2013-07-16 16:10:00,90.2,74.0,30.23,WNW,293,7.0,8.0,60,0.00,,,0.00,weatherlink.com 1.10,2013-07-16 20:10:00,
2013-07-16 16:25:00,89.8,75.0,30.23,NW,307,4.0,8.0,61,0.00,,,0.00,weatherlink.com 1.10,2013-07-16 20:25:00,
2013-07-16 16:40:00,88.6,74.0,30.23,SW,224,2.0,10.0,63,0.00,,,0.00,weatherlink.com 1.10,2013-07-16 20:40:00,
2013-07-16 16:55:00,89.2,74.0,30.23,SSW,195,4.0,9.0,62,0.00,,,0.00,weatherlink.com 1.10,2013-07-16 20:55:00,
2013-07-16 17:10:00,89.5,73.0,30.23,West,259,4.0,11.0,58,0.00,,,0.00,weatherlink.com 1.10,2013-07-16 21:10:00,
2013-07-16 17:25:00,90.0,73.0,30.23,SSW,208,2.0,9.0,58,0.00,,,0.00,weatherlink.com 1.10,2013-07-16 21:25:00,
2013-07-16 17:40:00,90.3,73.0,30.22,West,281,0.0,9.0,57,0.00,,,0.00,weatherlink.com 1.10,2013-07-16 21:40:00,
2013-07-16 17:54:00,90.6,73.0,30.23,WNW,293,6.0,9.0,56,0.00,,,0.00,weatherlink.com 1.10,2013-07-16 21:54:00,
2013-07-16 18:09:00,90.5,74.0,30.22,WNW,300,4.0,7.0,58,0.00,,,0.00,weatherlink.com 1.10,2013-07-16 22:09:00,
2013-07-16 18:24:00,90.6,73.0,30.21,WSW,257,5.0,9.0,57,0.00,,,0.00,weatherlink.com 1.10,2013-07-16 22:24:00,
2013-07-16 18:39:00,90.7,72.0,30.21,SW,217,2.0,9.0,55,0.00,,,0.00,weatherlink.com 1.10,2013-07-16 22:39:00,
2013-07-16 18:54:00,91.1,73.0,30.21,WSW,244,1.0,6.0,56,0.00,,,0.00,weatherlink.com 1.10,2013-07-16 22:54:00,
2013-07-16 19:09:00,90.8,73.0,30.21,NW,314,3.0,6.0,57,0.00,,,0.00,weatherlink.com 1.10,2013-07-16 23:09:00,
2013-07-16 19:24:00,90.0,73.0,30.21,WSW,253,4.0,7.0,58,0.00,,,0.00,weatherlink.com 1.10,2013-07-16 23:24:00,
2013-07-16 19:39:00,89.7,72.0,30.21,NNW,328,2.0,7.0,56,0.00,,,0.00,weatherlink.com 1.10,2013-07-16 23:39:00,
2013-07-16 19:54:00,89.0,72.0,30.21,WNW,287,2.0,8.0,58,0.00,,,0.00,weatherlink.com 1.10,2013-07-16 23:54:00,
2013-07-16 20:09:00,88.8,72.0,30.22,WSW,257,3.0,6.0,58,0.00,,,0.00,weatherlink.com 1.10,2013-07-17 00:09:00,
2013-07-16 20:24:00,87.9,72.0,30.22,WNW,287,2.0,7.0,59,0.00,,,0.00,weatherlink.com 1.10,2013-07-17 00:24:00,
2013-07-16 20:39:00,88.1,72.0,30.21,West,265,1.0,5.0,60,0.00,,,0.00,weatherlink.com 1.10,2013-07-17 00:39:00,
2013-07-16 20:54:00,87.8,72.0,30.22,WNW,288,2.0,3.0,60,0.00,,,0.00,weatherlink.com 1.10,2013-07-17 00:54:00,
2013-07-16 21:09:00,85.8,72.0,30.22,West,267,0.0,4.0,63,0.00,,,0.00,weatherlink.com 1.10,2013-07-17 01:09:00,
2013-07-16 21:24:00,84.8,72.0,30.21,WNW,288,0.0,2.0,65,0.00,,,0.00,weatherlink.com 1.10,2013-07-17 01:24:00,
2013-07-16 21:39:00,84.1,72.0,30.21,West,271,0.0,2.0,66,0.00,,,0.00,weatherlink.com 1.10,2013-07-17 01:39:00,
2013-07-16 21:54:00,83.6,72.0,30.22,WSW,241,0.0,2.0,67,0.00,,,0.00,weatherlink.com 1.10,2013-07-17 01:54:00,
2013-07-16 22:09:00,82.7,72.0,30.22,WSW,241,0.0,0.0,70,0.00,,,0.00,weatherlink.com 1.10,2013-07-17 02:09:00,
2013-07-16 22:24:00,82.1,72.0,30.22,SSW,195,0.0,1.0,71,0.00,,,0.00,weatherlink.com 1.10,2013-07-17 02:24:00,
2013-07-16 22:39:00,81.6,72.0,30.23,SSW,195,0.0,0.0,72,0.00,,,0.00,weatherlink.com 1.10,2013-07-17 02:39:00,
2013-07-16 22:54:00,81.1,72.0,30.23,SSW,195,0.0,0.0,73,0.00,,,0.00,weatherlink.com 1.10,2013-07-17 02:54:00,
2013-07-16 23:09:00,80.5,72.0,30.23,SSW,196,0.0,0.0,75,0.00,,,0.00,weatherlink.com 1.10,2013-07-17 03:09:00,
2013-07-16 23:24:00,80.0,72.0,30.22,SSW,194,0.0,1.0,76,0.00,,,0.00,weatherlink.com 1.10,2013-07-17 03:24:00,
2013-07-16 23:39:00,79.5,72.0,30.22,SSW,195,0.0,0.0,77,0.00,,,0.00,weatherlink.com 1.10,2013-07-17 03:39:00,
2013-07-16 23:54:00,79.3,72.0,30.23,SSW,195,0.0,1.0,78,0.00,,,0.00,weatherlink.com 1.10,2013-07-17 03:54:00,